This is the latest recevied weather packets stored in our database for station/object K6TTR. If no packets are shown the sender has not sent any weather packets the latest 10 day(s).
| Time | Temp. | Humidity | Pressure | Rain* | Wind** | Luminosity | Snow |
|---|---|---|---|---|---|---|---|
| 1777590225 | 20.56° C | 26% | 1017.3 hPa | 0 mm | - | 791 W/m² | - |
| 1777589930 | 20.56° C | 26% | 1017.4 hPa | 0 mm | - | 809 W/m² | - |
| 1777589615 | 20.56° C | 26% | 1017.5 hPa | 0 mm | - | 842 W/m² | - |
| 1777589320 | 20.56° C | 27% | 1017.6 hPa | 0 mm | - | 886 W/m² | - |
| 1777589028 | 20° C | 28% | 1017.6 hPa | 0 mm | - | 926 W/m² | - |
| 1777588712 | 20.56° C | 27% | 1017.9 hPa | 0 mm | - | 248 W/m² | - |
| 1777588418 | 20.56° C | 27% | 1017.1 hPa | 0 mm | - | 1014 W/m² | - |
| 1777588123 | 20.56° C | 29% | 1017.1 hPa | 0 mm | - | 991 W/m² | - |
| 1777587830 | 20° C | 27% | 1017.1 hPa | 0 mm | - | 1011 W/m² | - |
| 1777587517 | 20° C | 28% | 1017.1 hPa | 0 mm | - | 997 W/m² | - |
| 1777587223 | 20° C | 28% | 1017.2 hPa | 0 mm | - | 983 W/m² | - |
| 1777586912 | 20° C | 27% | 1017.3 hPa | 0 mm | - | 995 W/m² | - |
| 1777586618 | 20.56° C | 28% | 1017.3 hPa | 0 mm | - | 445 W/m² | - |
| 1777586322 | 20° C | 29% | 1017.3 hPa | 0 mm | - | 1009 W/m² | - |
| 1777586028 | 20.56° C | 29% | 1017.3 hPa | 0 mm | - | 1013 W/m² | - |
| 1777585713 | 20.56° C | 29% | 1017.3 hPa | 0 mm | - | 1016 W/m² | - |
| 1777585419 | 20.56° C | 27% | 1017.4 hPa | 0 mm | - | 1069 W/m² | - |
| 1777585123 | 21.11° C | 28% | 1017.5 hPa | 0 mm | - | 1069 W/m² | - |
| 1777584819 | 20.56° C | 30% | 1017.6 hPa | 0 mm | - | 1067 W/m² | - |
| 1777584522 | 20° C | 27% | 1017.6 hPa | 0 mm | - | 1039 W/m² | - |
| 1777584228 | 20° C | 29% | 1017.7 hPa | 0 mm | - | 1021 W/m² | - |
| 1777583913 | 20° C | 29% | 1017.7 hPa | 0 mm | - | 1028 W/m² | - |
| 1777583619 | 20° C | 28% | 1017.7 hPa | 0 mm | - | 1034 W/m² | - |
| 1777583324 | 20° C | 29% | 1017.7 hPa | 0 mm | - | 1153 W/m² | - |
| 1777583012 | 20° C | 30% | 1017.7 hPa | 0 mm | - | 1153 W/m² | - |
* Rain latest hour (hover to see other rain measurements)
** Current wind speed in m/s (hover to see current wind gust speed)